Wind_Speed
5 5 5 5 5 5 6 6 6 7 7 7 8 8 9 9 10 10 11 11 10 10 10 11 10 10 10 10 10 10 10 9 9 9 9 9 9 9 9 9 9 9 9 8
5 5 5 6 5 5 5 6 6 6 7 7 7 7 8 9 9 10 11 11 11 10 10 11 10 10 10 10 10 9 9 9 10 10 10 9 9 9 9 9 9 9 9 9
5 5 6 6 5 5 7 6 6 6 7 7 7 7 8 7 8 9 9 10 11 10 10 10 10 10 10 10 10 10 10 10 10 10 10 9 9 9 9 9 9 9 9 9
6 6 6 6 6 7 7 7 7 7 7 7 7 6 7 8 8 8 9 9 10 10 10 10 10 10 10 11 11 11 10 10 10 10 10 10 9 9 9 9 9 9 9 9
6 6 6 6 7 7 7 7 7 7 7 7 7 7 6 7 7 8 8 8 10 10 10 10 10 10 10 11 11 11 10 10 10 10 10 10 9 9 10 10 10 10 9 9
6 7 7 7 7 8 8 8 8 8 7 7 7 8 7 7 8 8 8 9 10 10 11 10 10 10 11 11 11 11 11 11 10 10 10 10 10 10 10 10 10 10 10 10
6 6 7 7 7 7 8 8 8 8 8 7 8 9 7 7 8 8 9 9 10 11 11 11 10 11 11 11 11 12 12 11 11 11 11 11 11 11 11 11 11 11 11 11
6 6 6 7 8 8 7 7 8 9 9 7 8 8 7 8 8 9 9 10 10 11 11 11 11 11 11 11 12 12 12 12 12 12 12 11 11 11 11 11 11 11 11 11
6 6 7 7 8 8 8 8 9 9 9 8 8 8 7 9 9 9 9 9 9 10 10 11 11 12 12 12 12 12 12 12 12 12 12 11 11 11 12 12 12 12 12 12
7 7 7 8 9 9 9 9 9 9 9 9 9 8 8 9 10 10 10 9 9 9 10 11 11 11 11 12 12 12 13 13 13 13 12 12 12 12 12 12 12 13 13 13
8 8 8 8 9 9 10 10 10 10 10 10 10 9 9 10 10 9 9 10 10 9 10 11 11 11 12 12 12 12 13 13 13 13 13 12 12 12 12 12 12 13 13 13
9 9 9 9 10 10 11 10 10 11 11 11 11 10 9 9 9 9 9 9 9 10 10 10 11 12 12 12 12 13 13 13 13 13 13 13 12 12 12 12 12 13 13 13
11 11 11 11 11 11 12 11 11 12 12 11 11 10 9 10 10 10 10 10 11 11 12 12 12 13 13 13 13 13 13 13 13 13 13 13 13 13 12 13 13 13 14 14
12 12 13 12 13 13 12 12 12 12 12 12 12 11 11 11 11 12 12 11 12 12 13 13 13 13 13 13 13 13 13 14 14 14 14 13 13 13 13 13 13 14 14 15
14 14 14 14 14 14 14 13 13 13 13 14 13 13 12 13 12 12 12 13 13 14 14 12 12 13 13 13 14 14 14 15 15 14 14 13 13 13 14 14 14 15 15 15
15 16 16 16 16 16 15 14 14 15 15 15 14 13 13 14 14 13 13 14 14 14 14 13 13 14 14 14 15 15 15 16 16 15 14 15 15 15 15 15 15 15 15 15
17 17 18 17 17 18 16 15 15 16 16 16 16 15 15 15 15 14 15 15 15 14 14 15 15 16 16 15 15 16 16 16 16 15 16 16 16 16 16 16 16 16 16 16
19 19 19 19 19 19 17 17 17 17 18 18 17 17 17 17 16 16 16 16 16 15 15 15 15 15 16 16 15 15 16 16 16 16 16 16 16 16 16 17 17 17 18 18
21 21 21 21 21 19 18 18 18 18 18 18 18 18 18 18 18 17 17 17 18 17 17 16 16 16 16 16 16 16 16 17 17 17 16 17 17 17 17 18 18 19 19 20
22 22 23 23 23 21 19 19 20 20 18 18 19 18 18 19 19 18 18 18 19 18 18 18 18 18 18 18 18 18 18 18 18 18 18 18 19 19 19 20 19 20 20 21
23 23 24 24 24 22 20 20 21 21 19 19 19 20 20 20 20 20 20 20 20 20 20 20 20 20 20 19 19 19 19 19 19 20 20 20 20 20 20 21 21 21 21 22
24 25 25 25 25 23 22 22 22 22 21 21 20 21 21 21 21 21 21 21 20 21 21 22 21 21 21 20 20 20 20 20 20 21 21 21 21 21 21 21 22 22 23 23
25 25 26 26 26 25 25 24 23 23 23 22 22 22 22 22 23 23 22 22 21 21 22 23 23 22 22 21 21 20 20 21 21 21 21 22 22 22 22 23 23 23 24 25
25 25 26 26 26 27 26 25 25 25 24 23 23 23 23 23 24 23 23 23 23 22 23 23 23 23 22 21 21 21 22 21 22 22 23 23 23 23 24 24 24 24 26 26
25 26 26 26 26 26 26 26 26 26 26 25 24 24 24 24 24 24 23 24 24 24 24 24 24 23 22 22 22 22 23 23 23 23 24 24 24 25 25 25 25 26 27 27
25 26 27 27 26 27 27 26 26 27 26 26 25 24 24 24 24 24 25 25 25 25 25 25 25 24 24 24 24 23 24 24 24 24 24 24 25 25 26 26 26 26 26 27
Wind_Direction
261 257 251 253 256 257 263 262 265 265 264 260 255 256 253 258 254 253 254 256 257 250 250 252 253 249 245 246 246 248 252 260 264 267 269 271 273 275 275 277 280 281 282 281
261 258 260 257 255 257 261 267 273 272 270 267 265 262 260 262 259 255 250 252 252 249 249 251 250 247 243 245 247 250 258 262 267 270 269 269 274 278 276 279 279 279 279 276
260 263 267 266 263 259 258 266 276 278 278 272 266 264 263 266 259 254 255 253 251 247 250 250 247 244 244 245 248 254 261 265 267 268 264 268 273 276 278 276 275 276 276 275
259 263 265 265 260 260 258 260 269 273 272 266 262 258 259 264 263 264 262 255 250 248 249 248 246 247 250 249 251 256 262 265 264 265 267 272 275 274 276 276 276 276 273 274
266 264 266 266 266 265 262 264 271 278 274 268 266 268 269 265 268 268 264 257 253 252 250 249 247 248 251 253 256 259 261 264 266 264 266 270 271 273 277 278 277 275 274 272
261 264 265 266 265 266 268 269 273 275 275 271 271 273 273 271 274 272 266 260 257 256 255 254 251 251 254 256 258 258 261 264 265 265 265 267 269 272 276 277 276 274 274 276
261 263 267 267 266 269 272 268 273 273 273 273 274 277 278 278 277 276 268 265 260 259 256 253 253 256 258 258 258 258 261 264 265 265 266 266 268 271 274 275 275 275 276 277
271 266 269 270 269 274 277 273 278 280 278 274 274 278 282 281 278 277 275 270 265 260 255 254 257 259 261 261 262 261 263 265 267 266 266 267 270 271 273 274 273 275 275 278
275 274 270 271 272 274 276 279 284 282 281 276 271 275 283 286 282 281 279 272 267 261 260 258 259 262 263 263 264 265 266 267 267 266 265 268 270 272 275 274 272 273 275 279
280 279 278 274 276 274 275 279 281 279 280 278 274 275 280 282 284 283 276 272 272 272 268 264 264 264 264 264 266 266 267 269 268 265 266 269 269 272 275 273 272 272 275 277
278 278 281 280 278 275 276 277 280 277 275 276 279 281 282 282 285 280 274 274 275 276 275 270 267 267 265 265 265 264 264 269 267 265 268 269 269 271 274 273 270 272 274 275
278 277 278 280 280 275 272 275 277 276 276 277 279 280 280 284 283 281 278 275 272 274 276 274 270 270 269 267 264 263 265 268 268 266 268 269 270 270 272 272 271 273 275 275
277 279 279 279 277 277 276 278 277 277 273 274 279 279 277 279 279 277 273 273 271 272 274 273 270 269 270 270 267 266 266 265 265 266 268 268 268 268 270 274 274 275 277 278
274 276 277 277 277 277 275 274 275 276 273 275 278 278 275 277 276 274 273 273 273 272 272 270 269 270 270 272 269 266 265 264 264 265 267 268 267 269 271 273 274 276 278 279
270 273 276 277 276 275 275 275 273 272 274 276 278 276 273 273 273 274 275 273 273 273 271 269 270 272 271 272 270 266 266 267 268 268 268 266 266 269 271 273 275 276 278 279
267 271 275 277 277 275 273 273 275 276 277 275 274 273 273 272 273 274 273 272 272 274 271 269 269 270 272 275 273 269 267 268 268 266 269 268 268 270 272 272 275 277 278 278
265 269 273 275 275 275 272 274 276 277 278 277 274 272 273 276 276 274 275 273 271 271 271 269 269 270 273 276 277 273 270 271 269 267 268 270 271 271 272 274 275 277 278 278
265 267 270 273 274 274 276 275 276 277 277 276 275 273 274 275 275 275 274 274 273 271 271 271 272 274 275 276 277 273 269 270 271 271 272 273 274 276 275 277 278 279 279 278
266 268 269 270 272 274 275 276 277 278 276 276 276 275 274 274 275 275 273 273 273 271 269 270 273 275 275 276 275 274 272 271 272 273 274 274 274 276 278 278 278 280 280 280
267 267 268 269 270 273 276 275 276 276 274 275 274 272 272 272 272 274 273 271 269 270 269 271 273 275 276 276 274 271 271 273 274 274 274 275 275 276 278 279 278 278 279 280
266 267 267 267 268 271 274 275 275 275 276 274 272 271 271 270 271 273 273 272 271 270 270 269 269 271 275 275 272 271 270 272 273 273 274 276 276 277 278 278 278 278 279 280
266 266 266 266 266 268 270 271 272 273 272 272 273 274 272 271 270 271 272 272 272 270 270 270 269 270 273 275 273 270 270 271 272 273 275 277 276 276 277 278 278 279 280 281
266 266 267 267 268 268 267 269 270 270 271 272 271 273 274 273 271 270 270 270 271 271 272 272 272 272 273 272 271 269 270 270 271 273 276 276 275 277 277 277 279 280 280 282
267 267 267 267 267 267 267 267 267 267 269 270 270 270 271 272 271 271 269 268 269 270 271 273 274 273 272 269 268 269 270 271 272 272 276 276 276 279 280 278 279 280 282 283
267 266 266 267 268 268 266 267 267 265 267 269 269 270 271 272 271 271 269 268 269 270 270 271 272 272 269 268 268 269 270 272 274 275 277 277 277 280 280 280 279 280 282 283
267 267 267 268 268 267 266 266 266 265 266 267 267 268 270 272 272 271 270 271 272 272 272 271 270 269 268 268 268 269 271 271 273 275 277 278 278 280 281 281 281 279 280 282
Height
5847 5848 5848 5849 5849 5850 5851 5851 5852 5852 5852 5853 5854 5854 5855 5855 5856 5856 5857 5857 5858 5858 5858 5858 5859 5859 5860 5861 5861 5862 5862 5863 5863 5863 5863 5863 5863 5863 5863 5863 5862 5862 5862 5862
5847 5847 5848 5848 5848 5849 5850 5850 5851 5851 5851 5852 5852 5853 5853 5853 5854 5854 5855 5855 5856 5856 5856 5856 5857 5857 5858 5858 5859 5860 5860 5860 5861 5861 5861 5861 5861 5861 5861 5861 5860 5860 5860 5860
5846 5847 5846 5847 5848 5848 5849 5849 5850 5850 5850 5850 5851 5852 5852 5852 5852 5852 5852 5853 5853 5854 5854 5854 5854 5855 5856 5856 5857 5858 5858 5858 5858 5858 5859 5859 5859 5859 5859 5859 5858 5858 5858 5858
5845 5845 5846 5846 5847 5847 5848 5848 5849 5849 5849 5850 5850 5851 5851 5850 5850 5850 5850 5850 5851 5851 5852 5852 5852 5853 5853 5854 5855 5855 5856 5856 5856 5856 5856 5856 5857 5857 5857 5857 5856 5856 5856 5856
5844 5845 5845 5846 5846 5846 5847 5847 5847 5847 5848 5848 5849 5849 5850 5849 5849 5849 5849 5849 5849 5849 5849 5850 5850 5851 5851 5852 5852 5853 5853 5854 5854 5854 5854 5854 5854 5854 5854 5854 5854 5854 5853 5853
5844 5844 5844 5845 5845 5845 5845 5846 5846 5846 5846 5847 5848 5848 5848 5848 5847 5847 5847 5846 5847 5847 5847 5848 5848 5849 5849 5849 5850 5850 5851 5851 5851 5852 5852 5852 5852 5852 5852 5852 5851 5851 5851 5851
5843 5843 5843 5844 5844 5844 5844 5845 5845 5845 5845 5846 5846 5846 5847 5846 5845 5845 5845 5844 5844 5845 5845 5845 5846 5846 5847 5847 5847 5848 5848 5849 5849 5849 5849 5849 5849 5849 5849 5849 5849 5849 5849 5848
5842 5842 5842 5842 5843 5843 5843 5843 5844 5844 5843 5844 5844 5844 5845 5844 5843 5843 5843 5842 5842 5843 5843 5843 5843 5844 5844 5845 5845 5845 5845 5845 5846 5846 5846 5846 5846 5846 5846 5846 5846 5846 5846 5846
5840 5841 5841 5841 5841 5842 5842 5841 5842 5842 5842 5842 5842 5843 5843 5842 5842 5841 5841 5840 5840 5840 5841 5841 5841 5841 5841 5842 5842 5842 5842 5843 5843 5843 5843 5843 5843 5843 5843 5843 5843 5843 5843 5843
5839 5839 5840 5840 5840 5840 5840 5840 5840 5840 5840 5840 5840 5841 5842 5840 5840 5839 5839 5838 5838 5838 5838 5838 5838 5838 5839 5839 5839 5839 5839 5840 5840 5840 5840 5840 5840 5840 5840 5840 5840 5840 5840 5840
5837 5838 5838 5838 5838 5838 5838 5838 5838 5838 5838 5838 5838 5841 5839 5838 5837 5837 5837 5836 5836 5836 5836 5836 5836 5836 5836 5836 5836 5836 5836 5836 5836 5837 5837 5837 5837 5837 5837 5837 5837 5837 5836 5836
5835 5835 5835 5836 5835 5835 5835 5835 5836 5836 5835 5835 5835 5839 5836 5836 5835 5835 5834 5834 5833 5833 5833 5833 5833 5833 5833 5833 5833 5833 5833 5833 5833 5833 5833 5833 5833 5834 5834 5834 5834 5833 5833 5833
5832 5832 5832 5833 5835 5834 5832 5832 5832 5833 5833 5832 5832 5836 5833 5833 5832 5832 5832 5832 5831 5831 5831 5830 5830 5830 5829 5829 5829 5830 5830 5830 5830 5830 5830 5830 5830 5830 5830 5830 5830 5830 5829 5829
5828 5829 5830 5830 5830 5830 5830 5830 5829 5829 5829 5829 5830 5831 5830 5830 5830 5829 5829 5829 5828 5828 5827 5827 5827 5827 5826 5826 5826 5826 5826 5826 5826 5826 5826 5826 5826 5826 5826 5826 5826 5826 5825 5825
5825 5825 5825 5825 5825 5826 5826 5826 5826 5826 5826 5826 5827 5827 5827 5827 5826 5826 5826 5825 5824 5824 5824 5823 5823 5823 5823 5823 5822 5822 5822 5822 5822 5822 5822 5822 5822 5822 5822 5822 5822 5821 5821 5821
5821 5821 5821 5821 5821 5821 5821 5822 5822 5822 5822 5822 5822 5823 5823 5822 5822 5822 5822 5821 5821 5820 5820 5820 5820 5820 5819 5819 5818 5818 5818 5817 5817 5818 5818 5818 5818 5818 5818 5818 5817 5817 5816 5816
5816 5816 5817 5817 5817 5816 5817 5818 5818 5818 5818 5818 5818 5819 5818 5818 5818 5818 5817 5817 5816 5816 5816 5816 5816 5815 5815 5814 5814 5814 5813 5813 5813 5813 5813 5813 5813 5813 5813 5813 5812 5812 5811 5811
5811 5811 5811 5811 5812 5811 5815 5813 5813 5813 5813 5812 5812 5813 5812 5813 5813 5812 5812 5812 5812 5812 5811 5811 5811 5811 5810 5810 5809 5809 5809 5809 5809 5808 5808 5808 5808 5808 5808 5808 5807 5807 5806 5806
5805 5805 5805 5805 5805 5806 5808 5808 5807 5807 5808 5807 5807 5807 5807 5807 5807 5807 5807 5807 5806 5806 5806 5806 5806 5806 5805 5805 5804 5804 5804 5804 5804 5804 5804 5803 5803 5803 5802 5802 5802 5801 5800 5800
5798 5798 5799 5799 5799 5800 5803 5802 5801 5802 5802 5802 5801 5801 5801 5801 5802 5802 5801 5801 5801 5801 5801 5801 5801 5800 5800 5799 5799 5799 5799 5798 5798 5798 5798 5798 5798 5797 5797 5796 5796 5795 5794 5793
5791 5791 5792 5792 5792 5793 5796 5795 5795 5797 5797 5796 5795 5795 5795 5795 5796 5796 5795 5795 5795 5795 5795 5795 5795 5794 5794 5794 5793 5793 5793 5793 5792 5792 5792 5792 5792 5791 5791 5790 5789 5789 5788 5787
5784 5784 5785 5785 5785 5789 5789 5788 5789 5789 5789 5789 5789 5789 5789 5789 5789 5789 5789 5789 5788 5788 5788 5788 5788 5788 5788 5787 5787 5787 5787 5787 5786 5786 5786 5786 5785 5785 5784 5783 5782 5781 5780 5780
5776 5777 5777 5778 5780 5781 5781 5780 5780 5781 5781 5782 5782 5782 5782 5782 5782 5782 5782 5782 5781 5781 5781 5781 5781 5781 5781 5781 5781 5781 5780 5780 5780 5780 5779 5779 5779 5778 5777 5776 5776 5774 5773 5772
5769 5769 5769 5769 5770 5771 5772 5772 5772 5772 5773 5774 5774 5774 5774 5774 5774 5774 5774 5774 5774 5774 5774 5774 5773 5773 5773 5774 5774 5774 5773 5773 5773 5773 5772 5772 5771 5771 5770 5769 5768 5767 5766 5764
5761 5760 5760 5761 5762 5762 5763 5763 5764 5764 5764 5765 5766 5767 5767 5767 5766 5766 5766 5766 5766 5767 5766 5766 5766 5766 5766 5766 5767 5767 5766 5766 5766 5766 5765 5764 5764 5763 5762 5761 5760 5759 5758 5756
5753 5753 5753 5753 5754 5754 5755 5755 5755 5755 5756 5757 5757 5758 5758 5758 5758 5758 5758 5759 5759 5759 5759 5759 5759 5759 5759 5759 5759 5759 5759 5759 5759 5758 5757 5757 5756 5755 5754 5753 5752 5750 5749 5747